Theta_e
336 336 333 332 332 331 335 337 337 337 339 341 337 331 333 335 336 338 339 342 343 341 341 340 339 340 339 338 338 339 339 339 339 337 334 335 336 331 326 325 317 309 309 310 313 317 322 330 333 332 332 334 335 334 335 335 334 334 334 334 333 333 334 334 334 334 334 334 334 333 332 331 331 331 331 330 330 329 327 327 326 326 325 324 324
339 341 340 338 335 332 337 340 340 340 342 343 339 332 333 334 333 334 337 341 341 340 340 339 339 337 337 338 338 339 339 339 339 337 335 336 336 332 329 328 323 314 309 310 312 315 321 328 334 337 337 337 337 336 336 335 334 334 334 334 334 333 334 333 333 333 334 334 333 333 332 332 331 331 331 331 330 328 327 327 326 326 325 324 324
339 342 344 343 338 334 338 341 340 339 339 340 339 335 335 334 334 335 336 338 339 338 338 338 338 337 335 337 338 339 340 339 338 336 336 337 336 333 331 330 328 321 311 309 311 315 320 326 332 337 338 338 337 337 337 335 334 334 333 334 333 333 333 333 332 332 333 333 333 332 332 332 332 332 331 331 330 328 328 327 326 326 324 323 322
335 340 342 344 340 337 338 339 339 339 339 339 341 342 341 337 333 333 335 336 337 336 336 337 338 336 335 336 339 340 339 339 337 336 337 338 337 335 333 331 331 326 318 311 310 314 319 324 328 333 337 338 337 337 337 335 334 334 333 334 333 332 332 332 332 333 333 333 333 332 332 332 332 331 330 330 330 329 328 327 326 325 324 323 322
331 336 338 341 341 339 338 337 337 339 341 340 341 343 343 339 334 332 333 335 334 333 334 337 338 337 335 336 339 340 339 339 337 336 337 338 338 336 334 333 332 330 325 317 312 313 316 320 324 329 335 338 337 337 336 335 334 333 333 333 333 332 332 331 332 333 333 333 332 332 332 331 330 329 329 329 329 329 328 326 326 325 324 323 322
330 336 336 338 339 338 337 336 337 340 340 339 339 339 340 339 336 333 334 334 333 333 334 336 338 337 335 336 338 339 338 339 337 334 336 338 338 337 336 334 334 333 331 324 316 314 314 316 321 328 333 336 336 337 336 335 334 333 333 333 333 333 332 332 332 333 334 333 332 332 331 331 330 329 329 329 329 328 328 327 327 326 324 323 322
325 334 339 339 337 338 339 337 337 339 338 338 339 339 337 337 336 335 334 333 332 333 333 335 337 337 336 336 337 337 337 338 337 334 335 338 338 338 337 335 334 334 334 330 322 316 315 317 322 327 330 333 334 335 335 335 334 333 333 333 333 333 333 333 333 332 333 333 332 332 332 331 331 331 330 330 329 328 328 328 327 326 324 324 323
318 326 337 341 339 338 340 339 336 335 335 335 338 339 337 335 334 334 334 333 333 334 333 333 335 336 337 337 337 337 337 337 337 335 335 338 338 338 338 336 334 334 334 332 326 320 318 318 321 326 327 330 332 332 334 335 334 333 333 333 333 334 334 333 333 333 333 333 332 332 332 332 331 332 331 330 329 329 328 327 328 327 325 325 324
317 319 329 338 340 339 338 338 337 335 334 334 334 335 334 334 334 333 333 334 334 334 333 332 332 334 336 338 338 337 337 337 338 336 335 338 339 338 338 337 335 334 333 333 328 323 321 318 319 324 327 328 329 331 332 334 334 333 333 334 333 334 334 334 334 334 333 332 332 331 332 332 332 332 330 330 330 329 328 328 327 327 326 326 325
316 319 324 330 338 340 338 336 337 338 337 336 335 334 333 334 335 334 334 335 335 335 334 332 332 335 337 337 337 337 336 336 337 337 336 338 339 338 338 337 335 333 333 332 329 325 324 320 317 321 325 325 325 328 332 334 334 333 332 333 333 332 333 334 334 334 333 333 332 331 331 332 332 332 330 330 331 330 330 329 328 327 327 326 325
316 318 324 331 337 339 338 338 338 339 338 337 337 337 335 335 335 336 336 335 336 336 333 332 333 334 335 336 336 336 335 335 336 337 337 337 338 338 338 338 336 334 332 332 331 328 327 324 319 320 323 323 323 326 331 334 335 334 332 331 332 332 333 333 334 333 333 333 333 332 331 331 331 332 331 330 330 330 330 330 329 328 327 327 327
316 317 322 331 338 339 339 339 338 338 338 338 339 340 340 338 336 337 338 337 337 337 335 332 333 334 333 335 336 335 334 333 334 335 336 336 337 338 338 338 338 336 334 333 332 330 330 329 324 321 321 322 324 326 328 331 333 335 334 331 331 332 333 334 334 334 333 333 333 332 332 331 331 331 331 331 330 330 329 329 328 328 327 327 327
316 316 318 324 333 339 342 342 341 341 340 336 336 341 343 341 338 337 337 337 337 337 336 334 333 334 334 334 335 333 333 333 332 333 334 335 337 338 338 338 338 336 335 333 332 332 332 331 328 325 323 322 325 328 327 327 330 335 336 333 331 332 333 333 334 334 333 333 333 332 332 332 332 332 332 331 331 330 329 328 328 328 328 328 327
315 316 317 318 324 333 340 343 345 345 344 340 338 339 341 341 340 339 336 336 336 337 336 334 333 335 334 333 333 333 331 332 333 333 333 334 336 337 336 336 336 334 332 332 332 333 332 332 330 329 329 326 325 327 328 327 328 332 336 336 333 332 332 333 333 333 334 333 332 332 332 332 332 332 332 331 330 329 329 328 328 328 328 329 328
315 315 316 318 319 324 331 338 344 345 343 341 341 339 339 341 340 340 339 338 338 338 337 335 333 335 336 334 333 332 330 330 333 334 333 334 335 335 335 334 334 332 331 331 332 332 332 332 331 331 333 330 327 328 329 327 327 331 334 336 335 333 333 333 333 333 333 333 333 333 333 333 332 333 332 331 330 329 328 329 329 329 329 329 329
315 314 315 317 319 324 328 333 340 345 344 342 340 337 337 339 339 340 339 338 337 337 337 335 334 335 337 336 335 333 330 330 333 335 334 334 335 335 335 333 333 332 332 332 332 332 332 332 332 332 334 332 329 329 330 328 328 330 334 336 336 335 334 333 333 333 333 333 333 333 333 332 332 333 332 332 331 330 329 329 329 329 329 329 329
314 314 316 316 317 322 330 334 338 342 344 343 338 332 331 334 338 339 338 337 336 335 335 336 335 336 338 337 334 332 331 330 333 335 335 334 335 336 335 334 334 333 333 333 332 332 333 333 333 333 334 333 330 331 332 331 329 330 333 335 336 336 334 333 333 333 333 333 333 334 333 332 332 332 333 333 332 331 329 329 329 329 329 329 329
314 313 314 315 314 315 320 328 333 335 336 336 332 328 329 332 332 334 336 338 337 335 335 335 335 335 336 334 331 329 330 331 332 335 336 336 336 336 337 336 335 334 334 333 332 333 334 334 334 334 334 334 333 333 334 333 331 331 332 334 336 336 335 333 333 333 333 333 334 333 333 333 333 333 333 333 332 331 330 330 329 328 328 329 329
314 315 314 313 314 315 313 316 321 326 332 336 335 333 333 333 330 328 330 332 334 334 334 334 336 335 332 329 327 327 328 332 335 336 338 338 338 337 337 337 336 335 335 334 333 334 334 335 335 335 335 335 334 335 335 334 333 332 332 333 335 336 335 334 334 334 334 334 334 334 334 333 333 333 333 333 332 331 331 330 329 328 328 328 328
316 318 317 314 313 314 315 315 315 317 323 332 340 342 338 330 326 327 327 329 332 334 334 336 336 335 331 327 327 328 329 332 336 338 339 340 339 338 338 337 337 337 336 335 335 335 335 335 335 335 335 335 335 335 335 334 333 333 333 333 335 336 336 334 334 334 334 334 334 334 334 334 334 333 332 332 332 331 331 330 328 327 327 327 328
314 316 317 317 316 316 317 318 317 315 317 324 335 343 344 339 333 330 330 332 335 335 336 335 334 332 331 330 329 330 332 333 336 339 341 341 341 341 339 338 338 337 336 337 337 336 336 336 335 335 335 335 335 335 335 334 333 333 333 334 335 336 336 334 334 334 335 334 334 334 334 334 333 331 330 330 330 330 330 329 327 327 327 327 327
312 312 314 316 318 319 319 320 320 320 321 322 326 334 341 345 346 344 341 340 339 339 338 335 334 333 332 332 332 333 334 336 337 339 342 343 343 342 341 340 339 338 337 337 337 337 338 337 336 336 336 335 335 336 336 335 333 333 333 335 335 336 336 335 334 334 334 334 334 334 334 333 331 329 328 328 328 328 328 327 327 328 327 326 326
311 311 313 314 316 318 318 320 321 322 323 326 329 331 333 338 343 343 344 345 343 341 341 338 336 335 334 334 334 334 335 338 339 341 343 344 344 343 342 341 340 339 338 337 338 338 339 338 337 337 337 336 336 336 336 335 334 333 334 334 335 336 336 335 334 334 334 334 334 334 334 332 330 328 328 328 328 327 327 327 327 328 328 327 326
311 311 312 313 315 316 317 318 318 320 321 321 327 331 332 335 337 333 335 343 345 342 341 341 340 338 336 336 336 335 337 339 341 342 344 345 345 344 343 342 340 340 339 337 338 340 340 339 339 338 338 337 336 336 336 336 336 335 334 334 335 336 337 336 335 334 334 334 334 334 333 331 329 328 329 328 328 328 327 328 328 328 328 327 327
311 311 312 312 313 314 316 317 317 318 319 319 320 324 328 333 335 331 333 341 343 340 337 338 341 342 340 338 338 338 338 339 342 344 345 346 346 344 343 342 341 341 339 338 339 340 340 340 340 339 338 337 336 336 336 337 337 336 335 335 336 337 337 336 335 334 334 334 334 333 333 331 329 329 329 329 329 328 328 328 328 327 327 327 326
311 311 312 312 312 313 314 316 317 317 318 318 318 320 322 326 330 336 341 341 334 330 328 330 339 344 343 340 339 338 338 338 341 344 346 346 346 345 344 343 342 341 340 339 340 340 340 340 341 340 339 337 336 336 336 337 338 338 336 336 337 338 337 336 335 335 335 334 334 333 332 330 329 329 329 329 328 328 328 328 327 327 327 326 322
312 312 311 312 312 312 313 314 316 317 317 317 317 318 319 321 323 329 337 339 332 330 332 334 339 343 343 341 338 337 337 337 338 342 344 345 346 346 346 345 343 342 341 341 341 340 340 341 341 341 340 338 337 336 336 336 337 338 337 336 337 338 338 336 336 336 335 334 334 333 332 331 329 329 328 328 328 328 327 327 327 326 325 322 316
313 312 311 311 312 312 312 314 315 316 316 317 317 317 318 319 319 320 325 330 332 336 340 341 342 342 342 340 337 335 336 337 337 338 340 342 344 345 346 346 344 343 342 342 340 340 340 342 342 341 340 339 338 337 337 337 337 338 338 337 337 338 338 337 336 336 335 335 334 332 332 331 330 329 328 328 328 327 326 326 325 324 322 318 313
314 313 312 311 311 311 312 313 314 315 316 316 316 317 317 318 319 319 319 321 324 328 331 335 338 340 340 339 336 334 335 336 335 333 333 337 342 344 346 346 346 345 343 342 340 340 342 343 342 342 341 339 339 338 338 337 337 337 338 338 338 338 338 337 337 336 335 334 333 332 332 331 330 330 329 328 328 327 325 325 324 323 321 317 312
314 313 313 313 311 311 312 313 313 314 315 315 315 316 317 317 317 318 319 319 320 321 323 324 327 329 333 336 335 333 334 335 331 328 329 334 339 342 344 346 346 346 344 343 342 342 343 343 342 342 341 340 339 338 338 338 338 337 338 339 339 338 338 338 337 336 335 334 333 332 332 331 331 330 329 328 327 326 325 324 323 322 320 316 311
314 313 314 314 312 311 311 312 313 313 314 315 315 316 316 317 318 318 318 319 319 320 321 323 324 324 324 328 331 332 332 333 331 327 330 337 339 340 342 345 346 346 345 344 344 344 344 343 343 342 341 340 340 339 338 339 338 338 338 338 339 338 338 337 337 336 335 334 332 332 331 331 331 330 328 327 326 325 324 324 322 320 317 314 310
313 313 313 314 314 313 312 312 312 313 313 314 314 315 316 317 317 318 319 320 321 321 321 323 324 325 325 324 327 330 331 332 331 331 335 341 341 340 342 345 346 346 345 345 345 344 344 343 343 343 342 340 340 339 338 339 339 338 338 338 338 338 338 338 337 336 335 334 332 332 331 331 330 329 328 326 325 324 324 323 321 318 314 311 308
312 313 313 314 314 314 314 313 312 312 312 313 314 315 316 317 318 319 321 323 323 324 324 324 323 325 326 326 326 329 331 332 332 333 338 343 343 342 342 344 345 345 345 345 345 344 344 344 343 343 342 341 340 339 339 339 339 338 338 338 338 338 337 337 337 336 335 333 333 332 331 331 330 328 327 326 325 324 323 322 320 316 311 308 306
312 313 314 314 314 314 314 313 314 313 313 315 317 317 317 317 318 320 321 322 322 323 325 326 326 325 327 328 329 331 332 332 333 337 342 344 344 344 343 343 344 345 345 345 345 345 344 344 343 343 342 341 340 340 339 339 339 338 338 338 338 338 337 336 336 335 334 333 333 332 331 330 330 329 328 327 325 324 322 321 319 315 310 306 305
312 313 314 314 314 315 315 314 314 315 316 317 319 319 318 318 318 319 321 321 322 323 324 325 327 327 328 330 333 334 334 335 337 340 343 345 344 345 344 344 344 345 345 345 345 345 344 344 343 343 342 341 341 340 339 339 338 338 338 338 338 338 337 336 336 335 334 334 333 332 331 331 331 330 329 328 326 324 322 321 318 314 310 306 304
313 313 314 315 316 316 316 315 314 315 316 317 317 318 319 319 318 319 321 321 322 322 322 323 325 327 328 331 333 334 335 337 338 340 342 344 346 346 345 345 345 344 345 345 345 345 344 344 343 343 343 342 341 341 340 339 338 339 339 338 338 337 337 336 336 336 335 334 333 332 331 331 331 330 329 329 327 324 322 320 317 313 309 305 304
314 314 314 315 316 316 316 315 315 314 315 316 317 317 317 318 318 318 319 320 320 321 320 320 324 327 328 330 332 332 332 333 336 338 340 341 344 346 346 345 345 345 345 345 345 344 344 343 343 343 343 342 342 341 340 339 339 339 339 338 337 337 337 336 336 336 335 334 333 331 331 331 331 330 329 329 327 325 323 320 316 313 308 305 303
316 314 314 315 315 315 316 317 316 315 314 315 316 315 315 317 317 318 319 318 318 319 318 317 322 326 327 328 331 332 331 331 332 336 338 340 342 344 346 346 345 345 345 345 345 345 344 343 343 343 343 343 342 341 340 339 339 339 339 339 338 337 337 337 336 335 335 334 333 332 331 331 331 331 330 329 328 326 324 321 316 313 309 305 303
317 315 314 315 315 315 316 318 318 317 316 316 317 316 316 317 318 319 320 320 319 319 319 319 321 325 325 325 327 331 332 331 331 333 335 338 341 343 345 345 346 345 345 345 345 345 344 344 343 343 343 342 342 341 340 339 339 339 340 339 339 338 337 337 336 335 335 334 333 332 332 331 331 331 330 329 328 326 325 322 317 313 309 305 302
317 316 315 314 315 315 316 317 316 316 318 319 320 320 320 321 322 322 323 323 322 321 321 320 321 323 324 324 326 329 332 332 332 333 332 333 337 341 343 344 345 345 345 344 344 345 344 344 344 343 342 342 342 341 340 340 340 340 340 340 339 338 338 337 336 334 334 334 333 332 332 331 330 331 330 329 328 326 325 322 318 313 309 306 303
319 319 317 316 315 315 317 318 317 317 319 320 321 321 322 323 324 324 324 324 323 323 321 320 321 323 325 326 326 329 332 333 333 333 333 333 335 338 341 343 344 344 345 344 344 344 344 343 344 343 343 342 342 341 341 341 340 340 340 340 339 339 338 337 336 334 334 334 333 332 331 330 330 331 331 330 328 326 325 322 318 313 308 305 302
319 319 319 317 317 317 318 318 317 317 318 319 320 320 320 321 322 322 322 323 324 325 324 323 321 322 325 328 328 328 331 332 333 333 333 333 333 333 335 338 341 343 343 343 342 343 344 343 343 343 343 342 342 342 341 341 341 341 341 341 340 339 338 337 336 334 334 334 333 333 332 330 330 332 332 330 329 327 324 322 318 312 307 303 301
318 319 319 318 318 319 320 319 318 318 318 318 319 319 320 321 322 323 324 324 325 326 326 326 325 325 329 331 330 329 328 329 332 334 333 332 332 331 331 336 340 342 343 343 341 341 342 343 343 343 343 343 342 342 342 342 341 341 341 341 340 339 339 338 336 335 334 333 333 333 332 331 331 332 332 331 329 327 325 322 317 310 304 301 300
318 318 319 319 320 320 320 319 319 319 319 320 321 322 322 322 323 324 325 326 327 327 327 326 326 327 330 331 329 328 329 330 333 334 334 333 332 332 333 336 338 339 341 342 342 340 341 342 342 342 342 342 342 342 342 342 341 341 341 341 340 339 339 338 337 336 335 334 333 333 332 331 331 332 332 331 328 326 325 322 316 308 303 300 299
317 317 317 319 320 321 321 320 319 319 320 322 324 325 325 323 322 323 324 325 326 327 327 326 326 326 328 327 325 324 328 332 334 335 334 332 332 332 334 335 335 337 338 339 340 341 340 339 339 340 341 342 342 342 342 342 342 341 341 341 340 339 339 339 338 336 335 334 333 333 332 332 332 332 332 329 325 324 323 321 315 308 303 300 299
316 316 315 316 319 320 321 321 319 319 319 321 323 324 325 324 323 324 324 325 326 326 325 326 327 327 326 324 323 322 325 329 334 335 333 332 332 333 333 333 334 335 336 335 336 339 339 337 337 338 339 340 341 341 342 342 341 341 341 340 339 339 339 338 338 337 335 333 332 332 332 332 332 332 331 328 324 322 321 317 312 307 303 300 299
315 315 314 314 316 319 321 321 319 318 318 319 321 322 322 323 326 327 327 326 325 325 325 324 324 325 324 323 322 323 322 326 332 334 332 331 332 333 333 333 332 333 334 333 333 336 337 337 338 338 338 339 341 341 341 341 341 340 340 340 339 338 338 338 337 336 334 332 331 331 331 332 332 331 329 326 322 319 317 314 310 306 303 301 300
313 315 314 313 314 316 318 320 321 320 320 322 323 324 324 325 327 328 327 326 326 326 326 325 325 324 324 323 324 324 324 326 331 333 333 332 331 331 332 331 331 332 332 332 332 334 335 336 338 338 338 338 340 341 340 340 340 340 340 339 338 337 337 336 335 334 332 330 329 329 329 330 329 327 324 321 318 316 315 313 310 306 303 302 300
312 314 313 313 312 312 314 317 320 321 321 322 324 325 325 326 326 327 326 326 326 327 327 327 327 325 324 326 327 328 329 331 332 332 333 332 331 330 331 330 330 330 330 329 329 331 334 336 336 337 337 338 339 340 339 339 339 340 339 339 338 337 336 335 334 333 330 328 328 328 328 328 326 323 321 319 316 314 313 312 309 305 303 302 300
312 313 313 312 312 311 312 314 317 319 321 322 322 323 324 324 325 327 327 327 327 328 328 329 328 327 327 329 330 330 330 331 331 330 331 332 331 331 331 331 331 330 330 329 328 329 332 335 335 335 336 337 338 338 338 338 338 339 338 338 337 336 336 335 333 332 330 328 328 327 327 327 325 323 321 320 317 314 312 310 308 304 302 301 300
311 312 312 312 311 311 311 311 312 315 318 319 320 321 322 323 324 325 326 327 327 327 328 328 328 327 328 330 330 330 330 330 330 329 330 331 331 331 331 331 332 331 328 325 326 329 332 334 335 336 336 337 337 337 337 337 338 338 338 337 337 336 336 336 334 331 328 327 327 327 327 326 324 323 323 321 318 315 312 309 307 303 301 301 300
Wind_Speed
40 41 41 39 37 37 39 38 35 33 34 37 32 27 27 29 31 34 37 38 38 35 33 35 38 37 36 35 34 32 30 28 25 24 26 26 23 22 21 18 19 23 23 21 20 21 21 18 17 18 17 17 16 17 17 14 14 15 15 16 17 18 18 18 18 17 16 16 16 16 17 19 19 19 19 18 16 15 15 15 16 19 20 21 19
42 42 43 42 39 39 42 41 39 38 39 40 36 31 30 30 29 31 35 37 38 34 32 34 37 37 37 35 34 33 31 29 26 25 25 24 22 23 22 19 18 21 23 22 22 23 23 20 20 19 18 17 17 17 17 16 16 16 16 15 16 17 17 18 18 18 18 18 18 18 18 20 20 19 21 21 19 17 16 16 18 19 20 20 18
41 42 43 44 42 41 45 44 42 41 40 40 38 35 34 32 30 32 34 35 36 33 31 31 33 34 34 34 34 32 30 29 27 25 25 23 23 23 24 21 19 20 22 23 23 24 24 23 22 20 19 18 18 19 19 18 16 15 15 15 15 17 17 18 19 19 18 18 18 18 19 19 19 20 22 22 21 20 17 16 19 19 18 17 16
38 43 43 44 44 44 46 45 44 43 42 41 40 39 39 36 32 32 34 36 34 31 29 28 31 32 32 33 33 31 29 28 26 26 27 25 24 24 25 24 21 20 22 24 25 25 25 25 24 22 20 19 19 20 21 19 17 16 16 16 16 18 18 19 20 20 19 19 19 19 17 17 18 19 21 23 23 21 19 18 19 19 17 16 16
35 44 45 44 45 46 47 46 45 45 43 42 41 41 41 37 33 31 33 36 32 28 27 28 31 33 33 34 34 31 29 29 27 29 31 28 26 26 26 25 23 22 22 23 26 26 25 26 26 24 21 20 20 20 21 20 18 17 17 17 17 18 18 18 20 21 21 20 19 17 13 14 17 15 14 19 23 23 20 19 18 18 17 17 16
31 43 48 47 47 47 47 47 46 46 44 42 41 40 40 39 35 33 34 34 31 29 28 28 31 34 35 36 37 35 34 34 31 31 34 31 28 27 26 26 26 24 23 23 25 26 25 26 28 26 23 22 21 20 21 21 20 19 18 18 18 18 17 18 21 21 22 21 20 18 13 12 13 11 11 14 19 24 22 19 19 20 19 18 18
27 36 45 47 48 49 49 49 47 46 44 42 42 41 40 39 36 34 34 33 32 31 29 28 30 34 35 35 37 38 36 36 31 30 34 31 28 28 27 28 28 27 26 25 25 26 25 26 29 28 25 24 22 20 21 21 20 19 18 17 17 18 19 19 21 21 23 23 22 21 17 12 9 10 12 13 16 22 23 21 21 21 21 21 19
23 30 40 45 48 50 51 51 48 45 43 42 43 43 41 39 37 36 36 35 35 33 30 29 29 31 34 35 37 37 34 33 29 28 32 31 28 29 29 29 30 30 29 27 26 26 26 26 28 29 27 25 23 22 21 21 21 19 19 18 17 19 20 20 20 22 24 24 23 22 20 16 13 10 12 12 13 18 21 22 22 22 22 22 21
28 27 37 44 48 51 51 51 49 46 45 45 44 43 41 40 38 38 38 38 37 35 31 29 28 29 33 35 36 35 32 31 29 27 30 31 30 31 31 30 31 32 32 29 27 27 28 27 27 30 29 26 25 24 22 21 21 21 21 20 19 19 20 19 20 22 23 22 22 22 21 21 19 15 13 13 12 13 16 20 20 22 24 24 23
33 27 33 46 49 52 51 50 50 49 48 47 45 43 42 41 41 40 41 40 38 37 33 30 29 30 32 34 35 35 31 30 31 29 30 33 33 33 33 32 32 33 33 31 29 28 29 28 28 30 30 27 26 25 23 22 22 23 22 21 20 20 20 21 22 23 23 21 21 22 23 24 23 21 20 18 16 15 14 15 17 20 23 22 20
34 27 27 44 49 49 50 50 50 49 48 46 45 45 44 44 43 42 42 41 40 39 35 32 31 31 31 32 33 33 30 29 31 33 32 34 36 36 36 34 33 33 33 32 30 29 30 30 29 29 30 28 27 26 26 24 22 23 24 23 22 21 21 21 22 23 24 23 23 23 24 25 25 25 24 23 21 20 18 16 16 18 20 18 16
34 30 23 34 46 47 48 51 51 49 48 47 47 47 47 46 45 44 43 42 42 40 37 33 33 32 30 31 33 32 29 28 29 32 34 36 37 37 36 36 34 33 33 32 31 31 32 32 31 30 30 30 28 28 27 26 23 23 24 24 23 22 22 22 22 23 24 25 25 25 25 25 25 25 24 23 23 22 20 18 16 16 19 18 15
32 31 25 23 37 46 48 48 49 50 50 49 47 47 47 46 45 44 43 43 42 41 39 35 35 34 31 32 33 31 29 28 28 30 34 36 38 37 37 36 36 34 33 32 31 31 33 34 34 33 32 30 29 28 28 28 26 24 24 25 25 24 24 24 23 23 24 25 25 25 25 24 24 23 23 21 21 21 20 18 16 16 17 16 14
29 31 29 20 22 36 46 47 46 48 49 48 47 46 46 47 47 46 45 44 43 42 40 38 36 36 34 33 34 32 30 29 29 31 32 34 38 37 36 35 35 34 33 32 31 30 32 34 35 34 32 30 29 29 29 29 29 27 25 24 25 25 25 24 24 23 23 24 24 24 24 24 23 22 22 21 20 20 21 19 18 17 17 16 16
25 28 32 28 17 22 36 45 46 48 48 47 47 46 46 47 47 48 47 45 45 44 42 40 39 38 37 36 36 33 30 29 31 32 31 33 36 37 36 35 34 33 32 31 30 29 30 32 34 35 34 32 30 29 30 30 30 29 27 26 25 25 25 25 25 24 24 25 25 24 24 24 23 22 23 23 22 22 22 21 19 19 20 20 20
23 25 30 31 21 17 29 41 44 46 48 48 47 45 45 46 47 48 47 45 45 45 44 43 41 40 40 40 38 35 32 31 32 35 34 33 35 37 36 35 34 34 33 32 31 30 30 31 33 34 34 33 32 31 31 32 32 31 30 28 26 25 26 26 25 25 25 25 25 25 25 25 24 23 24 24 24 24 23 23 22 21 20 19 19
28 27 24 22 15 9 20 35 43 44 44 45 45 44 44 44 45 47 47 47 46 45 46 45 44 43 43 41 39 37 35 35 35 37 37 36 36 37 36 35 35 35 34 33 32 31 30 31 32 33 34 34 33 33 33 33 34 34 33 31 28 27 27 26 26 25 25 25 25 24 24 25 24 24 25 25 26 26 25 25 24 22 20 19 19
35 35 28 23 20 15 12 18 31 39 42 43 43 45 46 45 45 47 48 49 49 47 47 46 45 45 44 42 40 39 39 38 37 38 40 40 39 39 38 37 35 35 35 34 34 33 32 32 32 33 33 34 34 35 35 35 35 35 35 32 29 28 28 27 26 26 25 25 25 25 25 25 25 25 26 27 27 27 26 25 25 23 22 21 21
33 35 35 33 29 25 22 17 17 26 37 45 47 48 50 49 47 48 49 49 49 48 47 47 48 46 43 41 41 42 43 41 39 41 43 44 43 42 40 38 36 35 36 35 35 35 34 34 34 34 34 34 35 36 37 37 36 37 36 34 31 30 29 28 27 27 26 26 26 27 26 26 26 26 27 27 27 27 26 25 23 22 23 24 23
37 34 32 33 32 27 23 20 19 16 20 35 48 53 53 53 53 51 50 50 50 49 48 47 48 45 42 40 40 42 44 43 42 44 46 46 46 45 42 39 37 37 36 36 37 36 36 36 35 35 35 35 36 36 38 39 38 38 38 36 34 32 31 30 29 28 28 28 28 28 28 27 26 26 26 27 27 27 26 24 22 20 21 24 25
35 37 34 27 19 15 12 12 17 17 14 20 37 47 46 48 53 55 55 54 53 51 49 46 44 42 39 39 40 41 44 44 44 45 47 48 47 47 44 40 39 38 36 36 37 37 37 37 37 36 36 36 37 38 38 40 40 40 39 38 35 33 33 32 30 30 30 29 29 29 29 27 25 25 25 25 26 27 27 25 22 21 21 23 26
31 34 37 31 17 10 8 6 7 10 12 16 26 38 40 37 39 43 48 53 53 51 49 45 41 40 39 38 39 41 44 45 46 46 47 48 48 48 46 42 41 40 37 37 38 38 38 39 38 37 36 36 38 38 39 40 41 41 40 40 38 36 35 34 32 32 32 31 30 30 29 27 25 25 22 20 21 23 24 25 24 23 23 24 26
27 30 34 35 26 17 12 7 4 3 6 12 20 32 38 36 33 31 33 41 45 44 43 42 40 39 38 38 38 40 43 45 47 47 48 49 49 48 47 44 43 42 40 39 39 40 40 40 39 38 37 37 38 39 39 39 40 41 42 42 40 38 37 36 35 34 33 32 31 31 30 27 26 25 21 18 19 21 23 24 25 25 26 26 27
26 26 27 31 32 26 18 12 9 6 5 9 14 22 31 38 41 38 35 36 37 34 34 36 38 38 37 38 39 39 42 45 47 48 48 49 50 49 48 47 46 44 43 41 41 42 41 41 40 39 38 38 39 39 40 40 40 41 42 43 42 40 38 38 37 36 35 34 33 32 29 27 26 25 22 20 21 24 24 25 25 27 27 27 28
30 26 25 27 33 32 23 17 15 12 9 8 10 13 19 31 41 44 42 39 34 31 31 33 35 37 36 36 37 39 41 43 46 48 49 49 49 50 49 49 48 47 45 44 43 44 43 43 42 40 39 40 40 40 41 42 41 40 41 43 43 42 40 39 39 37 36 35 34 32 28 26 26 26 25 24 25 26 27 27 28 29 29 28 28
40 33 26 25 29 32 29 23 19 17 15 12 11 11 11 17 29 40 44 40 34 32 34 35 36 38 37 36 36 38 41 43 45 47 49 49 50 50 50 50 50 49 48 46 46 46 46 46 44 41 40 40 40 41 41 42 43 41 41 42 43 43 41 40 40 39 37 36 34 31 28 26 27 28 28 28 28 29 30 31 31 32 32 29 27
43 38 29 24 25 28 32 29 23 19 17 16 14 13 12 11 15 25 34 36 35 35 35 37 39 40 39 38 37 37 38 40 43 45 48 50 51 51 50 50 50 50 49 48 48 48 48 48 46 43 41 41 40 40 41 42 43 43 42 42 43 44 43 41 41 40 38 36 34 31 29 27 27 28 30 32 32 32 32 32 32 32 31 26 22
41 39 32 28 27 28 31 31 28 25 22 20 18 16 16 16 15 15 18 23 29 34 37 40 41 42 42 41 40 38 38 39 41 42 45 48 51 51 50 50 50 51 51 50 49 49 49 49 47 44 43 42 41 40 40 41 43 44 43 42 43 44 44 43 42 40 39 36 34 32 30 28 28 27 27 30 32 32 31 30 29 28 26 22 21
39 39 36 33 31 32 30 28 28 29 26 24 22 19 17 19 20 19 18 18 19 24 31 36 39 43 45 46 44 42 41 42 43 44 45 47 50 51 50 50 51 51 52 51 50 50 51 50 49 46 44 44 43 42 41 41 42 44 44 44 43 44 44 44 42 41 39 36 35 33 31 30 29 27 27 28 28 26 26 26 26 26 25 24 24
37 38 37 35 31 30 27 25 27 30 29 28 26 23 21 21 22 23 23 23 22 21 23 28 33 37 41 45 48 47 45 46 47 48 49 49 49 50 50 51 52 52 52 52 51 51 51 52 50 48 46 46 46 44 43 43 42 43 45 45 44 44 44 45 44 41 39 38 36 34 33 32 30 28 27 28 26 24 23 24 25 25 26 26 26
38 38 36 35 31 28 26 25 26 27 26 27 26 25 25 25 23 24 26 27 27 27 25 26 30 33 35 39 45 48 48 47 47 49 50 50 49 48 49 52 53 54 54 53 53 53 53 53 52 50 49 49 48 46 45 45 44 44 45 46 46 44 44 44 45 43 41 39 37 35 35 35 33 29 28 27 25 24 24 24 25 25 25 26 27
40 41 38 36 34 30 27 28 29 28 25 26 27 27 26 25 24 25 26 25 26 29 29 29 32 34 35 37 41 46 49 47 46 46 48 49 49 48 49 52 54 55 55 54 54 54 55 55 54 52 52 52 50 48 47 47 46 46 47 47 47 45 44 44 46 44 43 40 38 37 37 36 34 30 28 27 26 25 25 25 25 25 25 26 27
40 41 39 37 35 31 27 26 28 30 28 25 27 28 26 25 24 24 24 21 20 22 25 29 32 34 38 41 42 45 49 49 48 47 48 49 49 49 50 52 54 55 56 56 56 56 56 56 55 54 55 54 53 50 49 48 48 48 49 49 49 47 44 44 46 45 43 42 39 38 38 37 34 31 29 28 27 27 27 26 25 24 25 26 27
40 40 39 38 36 33 30 26 24 27 27 22 21 24 27 27 25 25 25 25 24 22 22 25 29 30 34 42 47 48 50 51 50 50 50 50 51 51 51 52 54 55 56 57 57 57 56 56 56 56 56 57 55 52 50 50 50 51 51 50 50 48 44 42 44 44 43 43 41 39 38 36 34 31 30 29 28 28 28 27 25 25 25 26 27
38 36 36 36 35 33 32 27 22 22 23 20 17 19 23 26 26 25 26 27 28 26 23 25 28 28 30 36 45 49 51 52 53 52 52 52 52 52 52 53 54 55 56 58 58 58 58 57 57 58 58 57 56 53 51 51 50 51 51 50 50 49 45 43 43 43 43 43 42 39 37 36 34 31 29 29 29 29 28 27 26 26 26 26 26
37 34 31 30 29 29 30 28 25 22 21 20 19 19 20 23 26 26 26 27 29 29 28 30 29 28 29 31 35 41 46 50 52 53 54 53 53 53 53 53 54 55 56 58 59 59 59 58 58 58 59 58 57 55 53 51 51 51 50 50 50 50 48 45 44 44 43 43 42 40 38 36 34 30 29 29 30 29 28 28 27 27 26 26 26
34 33 31 27 24 25 26 25 25 25 23 21 21 20 19 21 24 27 29 29 29 31 34 35 31 27 28 29 31 34 40 46 49 51 53 55 55 54 53 53 54 55 56 57 59 59 59 59 59 59 60 60 59 57 55 53 52 52 52 51 52 52 50 48 47 46 44 43 43 41 39 38 35 31 29 29 30 29 28 28 29 28 28 28 27
28 31 32 28 25 24 22 19 20 24 25 23 21 20 20 22 25 27 29 29 30 33 37 39 35 30 28 29 30 32 35 41 48 51 53 54 55 55 54 54 54 56 57 58 59 59 60 60 61 61 61 61 60 59 57 55 53 54 54 53 53 53 52 50 49 48 46 44 43 41 39 39 37 33 29 28 29 29 27 28 30 30 30 30 29
23 28 31 30 26 23 21 19 19 22 23 21 21 22 23 25 26 27 26 26 29 33 35 36 34 32 31 29 30 32 33 36 44 51 52 53 56 56 55 54 54 55 57 58 58 59 60 60 61 61 61 61 61 60 58 56 55 55 54 54 53 53 52 51 51 50 48 45 44 41 40 40 38 34 30 28 28 29 27 28 29 31 32 31 29
21 22 27 29 27 24 21 19 21 23 20 15 15 17 19 21 22 23 23 24 26 30 31 31 30 30 30 30 29 31 33 34 38 46 50 54 58 59 57 56 55 55 57 58 58 58 59 60 60 61 61 60 60 61 60 58 56 56 55 55 55 54 54 53 52 52 50 47 45 43 42 42 39 34 30 28 28 28 27 27 29 32 32 29 27
20 19 19 23 25 24 21 18 19 20 17 14 14 15 17 19 20 21 24 25 26 28 29 30 29 28 29 30 30 30 33 34 35 41 48 53 56 55 55 56 55 55 55 56 56 56 57 59 59 59 60 60 61 62 62 60 58 57 56 56 57 56 55 54 53 53 51 50 48 45 45 45 40 33 29 28 27 27 26 26 28 29 27 25 25
20 17 16 18 20 22 21 21 20 20 18 18 18 19 21 23 24 25 26 26 26 28 30 31 31 30 30 30 31 31 32 33 34 37 44 50 52 51 51 53 54 55 55 55 54 53 54 57 59 59 59 60 61 63 64 62 59 57 57 57 58 58 56 54 54 53 52 51 50 47 46 46 41 32 29 27 26 26 27 27 27 26 24 24 25
28 21 16 14 17 20 20 19 19 19 20 22 23 24 25 24 24 24 24 25 26 29 30 30 30 30 31 30 29 29 30 33 35 36 39 44 48 49 52 54 54 54 56 57 57 56 54 54 56 58 59 59 61 63 64 63 61 58 57 58 58 58 56 55 55 55 53 52 51 47 47 46 40 32 28 26 25 26 27 26 25 24 24 25 26
37 30 23 16 16 19 19 17 16 16 17 17 19 21 22 21 22 23 23 25 27 29 30 29 27 27 29 29 29 29 29 31 33 35 36 40 45 48 52 56 55 53 54 55 55 56 56 54 53 55 57 58 60 63 64 63 61 59 58 58 57 57 56 55 55 55 53 52 50 48 47 45 38 32 29 27 26 27 26 25 24 24 25 26 27
41 38 33 26 20 19 20 20 19 19 19 18 17 18 18 21 24 25 26 27 28 28 28 27 25 26 29 31 31 31 31 30 31 33 34 37 44 48 49 50 52 53 54 54 54 55 57 56 54 53 54 56 58 61 62 62 60 59 58 56 56 56 55 54 54 54 52 51 50 47 46 43 38 33 30 29 29 28 26 24 23 24 26 29 29
43 41 40 36 28 21 20 21 21 22 23 22 21 21 21 22 24 25 27 27 27 27 26 26 27 28 31 32 31 31 31 30 30 33 34 33 38 43 43 42 45 49 50 49 50 53 56 56 56 54 53 55 57 59 61 61 59 57 56 55 54 54 53 52 52 52 50 50 49 46 45 42 39 35 33 32 31 29 26 25 25 25 27 29 30
43 42 43 41 35 27 18 17 20 21 22 23 24 24 24 25 24 23 22 22 22 24 27 29 31 31 31 31 30 31 32 31 31 32 34 34 36 38 39 39 42 46 47 44 44 48 51 53 55 55 53 53 55 57 59 60 59 57 55 54 53 53 53 52 51 50 50 50 49 47 44 42 39 37 34 33 32 30 29 28 28 27 27 28 29
45 42 44 44 40 34 22 13 15 17 17 17 20 22 23 23 22 21 20 17 18 21 25 27 29 28 28 29 29 31 31 30 30 30 31 35 39 41 40 39 39 42 46 46 46 49 52 52 53 55 54 53 54 57 59 61 61 60 56 54 53 54 53 52 51 50 50 50 49 46 44 42 40 37 35 34 34 33 32 31 31 30 28 28 28
45 41 43 45 42 39 31 20 15 15 11 6 7 12 15 15 16 17 17 16 17 19 21 22 23 24 25 25 26 27 27 27 27 28 29 32 37 40 41 41 41 41 42 42 43 49 56 57 56 56 56 54 55 58 61 62 62 61 58 56 54 53 52 51 51 51 51 49 47 46 45 43 41 39 37 37 37 36 36 35 33 31 30 29 29
45 41 43 46 44 41 36 27 21 17 11 5 4 6 8 8 9 10 10 11 14 15 15 15 17 19 20 21 21 22 23 24 24 24 26 28 30 33 36 38 39 38 37 36 37 44 52 56 57 58 59 58 57 59 61 61 60 58 56 54 52 48 47 48 50 51 51 50 48 48 47 45 43 41 40 40 39 40 40 39 36 34 33 32 32
44 40 41 45 45 43 39 32 29 25 16 8 6 7 6 5 6 7 8 9 10 11 11 11 13 16 18 18 18 19 20 21 20 19 22 25 27 29 32 34 36 35 31 31 35 41 48 53 54 54 55 57 58 59 59 59 58 54 50 47 45 43 42 46 49 51 52 51 50 50 49 47 45 44 42 42 42 43 42 39 36 36 35 34 33
Wind_Direction
202 203 206 209 206 201 199 199 196 191 193 195 197 196 189 189 198 204 208 212 210 207 207 205 205 205 205 207 211 216 217 216 218 218 215 214 221 224 213 206 203 204 208 205 199 200 201 199 194 195 197 198 200 208 213 210 204 202 206 213 217 219 222 224 222 217 213 205 201 203 203 202 202 200 199 203 213 223 233 245 257 269 274 273 275
200 200 204 206 204 202 199 197 194 193 195 198 202 201 195 195 200 203 204 208 210 209 210 209 208 207 206 207 209 213 215 216 218 216 209 212 222 224 217 212 207 207 209 206 201 202 204 202 198 197 197 195 198 209 218 213 208 208 210 214 219 221 223 227 223 211 208 209 206 205 203 206 211 210 207 208 212 218 227 243 256 265 266 264 268
200 200 201 201 202 202 199 196 195 197 198 200 207 206 199 197 200 203 203 206 210 211 212 213 212 210 207 206 207 212 215 216 219 214 206 214 224 224 220 218 215 213 212 208 205 204 206 206 204 201 199 198 199 208 218 217 212 215 217 220 223 221 219 223 222 215 213 212 208 208 207 209 216 219 218 213 214 219 224 239 252 260 263 260 261
200 201 201 199 200 200 198 197 197 198 200 202 205 203 198 197 200 203 205 207 209 210 214 216 213 210 208 206 207 214 217 217 220 213 206 212 222 224 222 222 220 216 214 212 209 207 208 210 210 206 202 203 205 209 217 219 214 216 220 222 224 221 217 218 217 215 217 211 204 206 207 212 220 228 229 220 215 222 228 233 244 256 260 256 255
203 200 203 200 197 199 198 199 199 199 202 204 205 205 202 201 203 207 208 208 210 210 211 213 211 207 204 201 205 214 218 219 220 212 205 207 215 222 224 224 223 218 215 214 213 211 211 214 214 210 204 205 208 210 215 219 217 216 220 225 227 223 221 222 218 215 217 218 214 208 203 215 224 227 229 223 216 221 230 233 241 253 256 255 255
213 198 200 201 198 198 199 199 199 200 203 207 209 209 209 207 205 208 211 210 211 211 208 211 211 206 201 199 201 208 213 217 218 210 205 205 209 217 223 225 225 221 218 216 216 214 214 216 216 211 207 208 209 210 214 219 220 217 218 224 229 225 222 223 223 219 216 219 221 220 222 227 225 217 219 222 215 217 224 231 241 250 252 255 258
232 207 198 199 198 196 196 196 199 202 205 208 210 210 211 211 209 210 213 213 212 211 208 210 211 208 205 202 203 208 212 215 217 211 206 206 208 215 222 225 226 225 222 219 217 215 215 216 216 213 211 211 212 213 214 219 223 223 221 224 228 226 221 220 222 220 216 220 220 219 225 226 221 220 223 222 211 211 217 224 235 242 245 251 256
260 225 204 197 196 194 193 195 199 206 208 210 211 211 212 214 215 216 217 216 214 210 209 210 211 211 210 206 204 208 215 217 217 210 205 207 210 214 222 225 226 226 226 224 220 216 214 214 215 216 214 213 215 216 217 219 222 225 225 225 226 226 225 223 223 219 218 223 220 215 215 215 219 224 224 224 216 213 215 220 229 234 240 250 254
281 249 217 204 200 197 196 198 201 206 209 211 213 213 214 215 216 218 218 217 215 211 210 211 212 213 212 208 205 208 214 217 218 213 205 207 212 215 220 225 226 226 227 227 223 218 216 214 214 217 218 216 216 218 219 219 221 224 225 225 224 225 227 226 225 225 226 226 222 219 214 212 220 221 216 222 226 222 218 220 225 227 233 244 252
285 273 231 212 206 201 200 201 201 203 206 210 212 213 215 215 215 218 217 216 216 213 212 212 210 211 211 209 207 207 209 212 216 217 210 208 213 216 219 224 225 225 227 228 225 222 220 217 214 215 218 219 219 218 219 219 220 223 225 227 228 228 227 226 225 228 232 231 227 227 221 215 219 219 214 217 223 229 229 226 229 230 233 241 249
280 281 239 212 206 202 202 202 202 204 207 208 210 212 214 215 215 216 216 216 216 214 213 213 209 209 211 212 209 209 209 210 214 217 213 209 213 217 220 223 225 226 227 227 225 223 223 221 216 214 217 221 222 220 219 220 221 224 226 227 230 231 231 230 227 226 228 229 228 228 226 223 223 222 221 222 223 230 236 237 239 241 244 252 258
271 274 253 213 203 202 203 205 204 205 206 207 209 210 210 212 214 213 214 216 215 214 213 213 211 210 213 213 210 211 213 213 215 217 215 212 214 218 220 222 225 225 226 225 223 221 222 222 220 217 216 219 223 222 220 221 223 224 226 226 227 230 232 232 231 227 225 226 226 226 227 228 228 229 231 232 233 235 239 243 245 244 246 252 259
272 271 266 228 207 204 203 204 206 204 204 207 208 209 208 210 213 213 214 216 216 217 215 213 213 211 212 214 213 214 217 215 217 220 218 215 216 218 220 222 224 224 224 224 222 221 221 221 221 221 220 218 220 222 222 222 224 225 224 225 225 227 231 234 234 232 229 228 229 229 228 228 229 229 229 231 235 236 237 241 243 246 251 253 251
276 275 273 257 218 209 206 205 206 204 203 205 206 207 209 210 212 214 215 217 217 218 216 214 215 213 212 216 217 217 220 219 217 221 221 217 216 220 224 225 226 227 227 226 225 223 223 223 222 224 225 222 219 221 223 222 224 227 227 225 225 227 231 234 235 235 232 232 233 231 230 231 230 227 224 226 230 231 233 235 235 240 250 256 259
284 281 275 269 251 222 212 208 208 208 207 207 207 207 209 210 212 213 214 215 216 217 217 216 217 215 213 217 220 221 227 227 221 221 224 220 216 219 224 228 231 232 231 230 228 226 227 225 223 224 228 227 222 221 222 223 224 227 229 228 227 228 231 233 235 234 232 232 232 232 233 233 232 229 227 229 229 228 228 231 233 235 240 249 260
294 285 274 269 261 232 216 210 207 209 209 208 207 208 210 212 213 214 215 217 218 217 217 218 219 217 214 216 221 224 229 231 224 219 223 225 220 219 223 228 231 233 233 232 230 228 228 226 225 225 227 229 226 222 221 222 224 226 229 230 228 228 230 233 234 233 232 233 233 234 234 233 232 231 230 230 230 229 227 230 234 237 239 244 251
288 289 283 280 283 252 220 212 209 210 210 209 212 214 216 217 215 214 215 217 219 219 219 219 220 218 216 217 223 228 231 232 228 222 222 225 223 221 224 228 230 231 233 233 232 230 228 228 228 228 228 228 227 225 223 221 223 226 229 230 229 228 230 234 234 234 234 233 234 234 233 233 232 231 231 230 229 229 228 230 234 237 240 241 244
281 280 280 285 295 299 276 230 216 218 218 217 220 223 221 220 219 217 216 214 216 218 219 219 220 220 219 222 227 232 234 233 230 226 223 222 222 223 224 226 229 230 232 233 234 231 229 229 230 230 231 230 227 226 225 223 223 226 229 231 231 230 231 233 234 235 234 233 233 233 233 233 233 232 231 230 228 228 228 230 233 237 241 242 245
304 288 278 275 278 285 289 281 252 233 226 222 221 221 219 219 221 221 221 220 217 216 217 218 219 220 222 227 231 234 235 233 229 227 224 221 222 223 224 225 227 228 230 232 232 232 231 230 230 231 232 232 230 227 226 225 224 226 228 231 231 231 231 232 233 233 233 232 232 232 233 234 234 234 232 230 229 230 231 233 235 238 243 245 246
336 327 305 283 275 280 286 287 283 272 245 230 222 217 216 220 223 223 223 222 218 215 215 216 217 219 221 225 229 232 233 233 229 225 224 223 222 223 224 225 226 227 229 230 231 233 232 231 230 230 232 233 231 229 228 227 226 226 228 229 231 231 231 231 231 232 231 231 232 233 234 235 237 239 238 236 234 236 239 238 235 235 240 244 244
335 339 334 315 292 290 304 301 289 287 283 249 227 219 218 218 218 219 219 216 214 213 215 215 217 219 221 223 226 228 230 231 230 226 223 223 223 224 225 226 227 228 229 230 232 233 234 232 230 230 232 232 231 230 229 228 227 227 227 228 230 231 231 231 230 230 231 232 233 234 235 238 242 242 240 238 238 241 242 237 230 229 233 236 237
327 326 330 331 335 346 347 338 304 287 283 269 241 230 229 219 209 211 212 210 209 211 213 215 217 219 222 225 226 228 229 229 229 227 223 222 222 224 225 226 227 229 231 232 234 234 234 233 232 231 230 231 231 230 229 227 227 226 226 227 229 230 231 230 229 230 232 233 234 236 238 242 242 237 233 232 232 232 233 231 229 231 232 231 231
319 317 320 323 325 333 343 345 346 329 288 275 251 236 233 227 219 217 216 211 210 212 214 216 218 221 224 226 227 228 229 228 227 226 224 222 222 223 225 226 228 230 231 234 235 235 235 234 232 231 229 228 229 230 228 227 227 226 226 226 229 230 229 229 230 231 233 234 236 238 242 243 237 229 226 227 227 227 227 229 233 237 238 235 234
306 301 308 316 315 314 319 319 313 313 304 296 276 248 234 227 224 224 224 222 217 215 218 221 221 223 226 226 227 229 229 228 227 226 225 224 223 223 224 226 229 230 231 233 234 234 234 234 232 231 229 227 227 228 228 228 228 228 227 227 229 230 230 230 232 233 234 235 237 240 243 242 234 228 225 224 228 232 233 234 237 240 241 241 240
311 299 293 303 310 309 305 302 300 293 280 288 296 274 244 229 225 222 220 222 221 220 226 230 228 226 225 226 227 228 229 229 227 226 226 225 225 224 224 226 227 228 230 232 233 232 233 234 233 231 229 227 226 226 227 228 230 230 229 229 230 230 230 231 233 234 235 237 239 242 241 238 233 230 227 225 227 233 236 239 240 240 242 245 245
312 304 290 289 300 304 302 296 293 288 277 271 279 284 266 237 227 222 219 220 224 227 231 233 231 228 226 226 227 228 229 230 228 227 227 226 227 226 225 225 226 226 228 230 231 232 233 234 233 231 229 227 226 225 227 229 231 231 231 231 231 231 230 232 233 235 235 237 241 242 238 233 230 228 228 228 228 231 235 240 242 243 245 246 243
310 302 288 278 282 292 297 293 287 286 282 274 269 271 274 264 245 233 226 224 226 228 227 227 228 229 228 227 228 230 231 230 230 229 227 227 228 227 226 225 225 226 227 228 229 231 234 234 232 231 230 228 225 224 225 228 230 232 232 231 231 231 230 230 233 234 235 237 239 239 237 234 231 228 227 227 229 231 235 240 243 244 244 242 233
308 303 292 281 275 280 290 289 283 283 281 278 274 267 264 267 272 268 252 239 231 226 223 224 226 229 230 231 233 233 232 231 232 231 230 229 228 227 227 226 225 225 226 227 229 231 232 231 230 230 231 229 226 223 224 226 229 231 232 230 230 230 229 229 231 232 234 236 237 237 238 238 237 235 231 228 229 232 235 239 242 242 241 237 229
306 304 301 294 282 276 281 284 283 283 280 279 279 272 265 264 266 271 274 270 257 241 232 230 231 232 234 236 236 235 232 232 233 233 232 230 228 226 227 227 225 225 225 227 229 230 229 228 228 229 230 229 226 225 225 226 228 229 229 229 229 229 228 228 229 231 232 234 235 236 238 239 240 241 240 235 232 233 236 240 241 241 238 234 230
301 299 301 302 288 271 269 276 282 282 277 278 281 277 275 275 270 268 270 273 276 272 257 246 241 240 240 239 238 236 234 233 234 235 234 231 228 226 226 226 226 225 226 227 228 228 227 226 227 227 228 228 226 226 228 228 229 229 228 228 229 228 228 229 229 230 231 232 234 235 237 239 240 243 242 238 233 233 238 241 242 241 239 234 229
295 292 296 301 293 276 270 276 284 285 276 273 280 283 282 280 277 274 274 273 275 279 275 261 252 249 248 245 241 238 236 236 237 236 234 231 229 227 226 226 226 225 225 226 227 226 225 225 226 226 226 226 227 228 229 228 230 231 229 228 228 228 228 229 229 230 231 231 231 232 236 237 239 241 239 235 233 233 237 239 240 238 237 235 233
292 290 290 295 295 288 282 280 283 285 279 271 275 281 279 275 271 271 273 275 276 278 278 271 262 256 252 249 244 239 237 238 239 236 234 233 231 229 226 225 225 226 226 225 225 225 225 225 225 225 225 226 228 230 229 228 230 231 230 229 228 228 229 229 229 230 231 231 229 231 234 235 237 239 237 233 232 233 235 237 237 234 232 232 233
291 289 287 287 291 295 294 288 283 282 280 279 278 274 268 264 264 264 265 270 277 283 284 278 271 263 255 249 245 240 237 237 238 237 235 234 232 229 227 226 226 226 226 225 225 225 225 225 225 224 225 225 228 230 229 228 229 230 230 230 229 229 230 230 230 231 231 229 228 230 232 233 235 238 237 233 231 233 234 234 234 232 229 228 230
291 288 286 282 283 290 294 295 295 286 277 275 274 266 258 255 258 261 262 265 272 283 291 287 277 269 260 251 244 240 237 236 235 234 233 232 231 230 229 227 226 226 225 225 225 225 225 225 225 225 225 225 227 229 229 228 227 228 229 229 229 229 229 231 232 231 230 229 229 230 232 232 234 237 237 234 232 233 233 232 232 230 227 227 229
291 287 287 285 282 286 290 293 299 291 273 261 255 255 253 250 253 261 264 265 268 275 290 295 284 272 267 256 244 237 236 233 231 230 230 231 231 230 229 228 227 226 225 225 226 225 225 225 225 225 225 225 226 229 230 228 227 227 227 227 228 228 229 232 233 231 231 230 230 232 232 232 235 239 240 237 233 232 233 232 231 230 227 226 227
286 281 278 281 279 280 283 286 289 289 282 269 257 255 254 247 248 257 264 267 266 267 279 292 285 271 269 268 255 242 236 233 230 229 229 229 229 230 229 228 227 227 226 226 226 226 225 225 225 225 225 225 227 229 229 229 227 226 226 226 226 227 229 232 233 231 231 231 231 232 231 231 235 240 241 239 236 233 233 233 231 228 226 225 225
282 272 267 268 269 272 278 280 281 280 280 278 268 263 262 252 248 257 269 273 266 260 269 281 280 269 270 277 273 257 245 239 235 231 229 229 229 229 229 228 228 227 227 226 226 226 226 225 225 225 224 225 227 229 229 228 226 224 224 225 226 227 228 230 231 230 230 230 231 232 230 231 234 240 241 239 235 232 231 233 232 228 226 223 223
278 266 264 264 260 263 269 273 275 273 270 272 270 268 269 263 258 264 273 275 267 261 268 274 272 268 269 276 278 267 254 245 241 237 233 230 228 227 228 228 228 228 227 227 227 226 226 226 226 225 225 226 227 229 229 227 225 223 223 224 224 225 226 228 229 229 228 229 230 231 231 230 233 239 242 239 235 231 230 231 231 228 226 224 222
280 262 261 264 258 256 258 259 270 274 271 270 268 265 265 263 263 267 272 271 264 260 264 268 266 266 268 273 278 275 265 254 246 241 239 236 231 228 227 227 228 229 229 229 228 226 226 226 226 226 227 226 227 228 228 226 225 223 223 224 224 223 223 225 226 225 225 227 229 230 231 230 232 237 241 239 235 233 230 230 230 228 227 225 223
304 279 266 264 260 257 259 261 268 273 271 271 268 264 262 262 265 269 271 269 264 260 264 266 263 265 268 272 278 280 275 266 252 244 243 241 236 231 228 227 228 229 230 229 228 228 227 227 227 227 226 226 226 228 228 227 225 224 222 223 223 222 222 224 224 222 222 224 226 228 230 230 230 234 240 241 238 234 232 230 228 228 228 226 224
332 316 293 276 262 257 261 268 270 266 260 260 264 263 263 263 266 268 270 271 271 270 270 269 267 271 272 271 274 278 277 272 260 247 242 240 237 233 231 229 227 228 229 228 228 228 228 228 228 227 227 226 226 228 230 228 226 224 223 223 222 222 224 225 223 221 222 224 225 227 228 227 226 230 240 243 238 233 232 231 229 228 228 226 224
354 343 326 303 281 274 275 275 272 263 251 252 261 266 267 268 268 270 272 275 276 276 277 276 275 276 273 269 270 275 277 277 271 256 245 240 238 238 238 235 230 227 228 228 228 228 229 229 228 228 228 227 226 229 230 229 227 225 223 223 224 223 224 225 224 222 222 225 226 228 229 227 225 229 239 244 239 232 231 232 229 225 223 221 221
7 359 343 316 295 293 291 284 279 270 260 260 265 266 267 267 268 270 274 277 277 275 276 279 279 276 269 267 272 279 282 282 277 266 254 246 241 238 238 237 232 228 228 228 228 228 229 230 229 229 228 227 226 228 229 229 228 226 224 224 225 224 224 226 226 225 225 224 225 228 231 228 224 228 238 243 239 232 230 231 228 220 214 214 215
8 4 355 333 304 294 287 280 275 272 273 276 274 268 262 258 261 268 275 277 275 273 274 276 277 271 266 267 275 284 289 288 280 270 260 250 243 240 238 236 234 232 231 229 227 226 227 228 229 229 228 228 227 227 229 229 228 227 226 224 224 224 225 227 228 229 229 227 227 229 230 227 224 229 236 238 233 229 229 230 226 216 209 209 211
7 6 3 353 332 308 290 279 269 262 267 275 277 273 266 258 259 266 269 268 269 272 275 275 269 262 262 267 274 281 287 289 283 271 257 246 241 242 242 241 239 238 235 232 230 227 226 228 230 230 229 228 227 227 228 229 229 228 227 224 223 223 225 228 229 230 230 229 229 231 231 227 226 230 232 230 227 226 227 228 224 214 207 208 211
4 5 5 360 351 333 305 286 275 265 260 264 273 279 278 272 268 268 267 266 268 270 271 267 261 258 261 265 270 277 282 287 283 269 256 245 240 240 242 243 243 243 241 236 233 231 230 230 231 231 230 229 228 227 227 227 227 227 226 224 222 223 225 227 230 232 231 229 228 230 229 227 227 229 228 226 223 223 224 223 220 214 209 209 212
2 3 6 4 2 354 329 297 287 278 266 264 270 274 274 272 272 272 271 273 274 271 266 262 260 261 264 265 270 276 279 283 282 271 259 252 249 247 244 242 243 245 246 242 238 236 233 230 229 229 230 229 228 226 227 227 225 225 224 222 220 220 222 224 227 230 229 226 224 225 226 227 228 228 226 223 222 221 220 219 217 214 212 212 214
2 2 5 6 7 6 0 337 312 298 281 270 269 267 265 266 265 264 265 268 270 266 265 265 265 266 268 270 274 278 279 280 283 280 270 259 253 252 249 245 244 247 247 245 243 239 234 231 230 229 229 228 227 226 227 228 226 224 222 219 216 216 218 220 223 225 222 219 218 219 221 222 223 221 218 217 217 218 219 220 218 214 211 211 214
3 3 6 7 7 7 7 359 339 319 302 291 284 272 265 263 262 260 259 262 266 265 266 271 273 273 276 279 282 283 281 280 281 282 277 263 252 250 250 249 247 247 247 247 246 243 238 235 232 230 228 227 227 227 229 230 229 226 223 219 215 213 214 217 221 222 219 215 214 216 217 218 216 214 212 212 213 215 217 219 217 214 211 209 209
5 4 7 8 6 5 3 3 0 347 328 322 339 310 278 264 263 259 256 263 270 270 271 278 283 286 291 295 295 289 284 282 282 280 274 265 255 250 249 248 246 245 246 248 248 246 242 237 232 231 231 230 229 230 231 231 230 227 224 221 217 214 214 218 221 222 219 216 214 215 216 216 215 214 212 212 211 212 214 215 213 213 213 210 208
7 6 7 9 7 4 0 4 11 8 359 2 25 24 11 342 300 274 265 268 273 278 287 297 300 301 303 306 306 301 294 289 286 278 268 261 256 251 247 246 244 242 245 253 253 246 240 235 231 229 229 230 231 232 232 232 230 227 224 222 219 217 220 225 226 223 218 215 216 216 216 216 216 215 214 213 213 212 212 212 212 213 214 211 209